Regional Weather Roundup
Issued by NWS

Home | Current Version | Previous Version | Graphics & Text | Print | Product List | Glossary On
Versions: 1 2 3 4 5 6 7 8 9 10 11 12 13 14 15 16 17 18 19 20 21 22 23 24 25 26 27 28 29 30 31 32 33 34 35 36 37 38 39 40 41 42 43 44 45 46 47 48 49 50
744
ASUS43 KLOT 110808
RWRIL

ILLINOIS REGIONAL WEATHER ROUNDUP
NATIONAL WEATHER SERVICE CHICAGO/ROMEOVILLE IL
200 AM CST MON DEC 11 2017

NOTE: "FAIR" INDICATES FEW OR NO CLOUDS BELOW 12,000 FEET WITH NO
SIGNIFICANT WEATHER AND/OR OBSTRUCTIONS TO VISIBILITY.

* THESE STATIONS ARE NOT UNDER NWS QUALITY CONTROL. THEY ALSO MAY NOT
  REPORT WEATHER SUCH AS PRECIPITATION OR FOG.

ILZ001-002-007-009-015-016-024-110900-
NORTHWEST ILLINOIS

CITY           SKY/WX    TMP DP  RH WIND       PRES   REMARKS
MOLINE         CLOUDY    29  23  78 CALM      30.04S
STERLING*      CLOUDY    23  22  96 S5        30.05F WCI  17
SAVANNA*       CLOUDY    25  22  89 S3        30.04R
$$

ILZ003-004-008-010-011-017-018-110900-
NORTH CENTRAL ILLINOIS

CITY           SKY/WX    TMP DP  RH WIND       PRES   REMARKS
ROCKFORD       CLOUDY    19  16  88 SE6       30.02F WCI  11
FREEPORT*      MOCLDY    19  17  89 SW3       30.03S
ROCHELLE*      MOCLDY    16  14  89 SE7       30.02F WCI   7
DE KALB*       CLOUDY    19  17  90 SE3       30.02F
PERU*          MOCLDY    22  19  87 S5        30.05F WCI  16
$$

ILZ005-006-012>014-019>023-110900-
NORTHEAST ILLINOIS

CITY           SKY/WX    TMP DP  RH WIND       PRES   REMARKS
CHICAGO-OHARE  PTCLDY    24  17  74 CALM      30.04F
CHICAGO-MIDWAY PTCLDY    27  19  72 CALM      30.05F
AURORA         CLOUDY    16  13  88 E3        30.03F
LANSING*       CLEAR     22  19  90 S3        30.06F
WAUKEGAN       CLOUDY    18  15  88 CALM      30.04F
DUPAGE AIRPORT CLOUDY    18  17  96 CALM      30.03F
KANKAKEE*      CLOUDY    18  16  90 CALM      30.07F
WHEELING       CLEAR     22  17  81 CALM      30.06F
MORRIS*        CLOUDY    20  18  89 CALM      30.04F
ROMEOVILLE*    CLOUDY    22  20  89 CALM      30.05F
NORTHERLY ISL    N/A     27  17  66 S3          N/A
$$

LMZ740>746-110900-
SOUTHERN LAKE MICHIGAN

STATION/POSITION SKY/WX   TEMP    WIND        PRES    VSBY  WAVE
                          AIR SEA DIR/SP/G                  HT/PER
                          (F)     (DEG/KT/KT) (MB)    (MI)  (FT/S)
HARRISON CRIB              29     260/  6/  7   N/A
BURNHAM HARBOR             27     150/  3/  6   N/A
CALUMET HARBOR             28      CALM  /  2 1017.2F
BURNS HARBOR               31     290/  4/  7 1018.3S
MICHIGAN CITY              31     250/ 10/ 13   N/A
$$

ILZ025>027-034>036-040-047-049-050-058-095>099-110900-
WEST-CENTRAL ILLINOIS

CITY           SKY/WX    TMP DP  RH WIND       PRES   REMARKS
QUINCY         CLOUDY    35  25  66 S6        30.04F WCI  30
GALESBURG*     CLOUDY    29  25  87 S3        30.06R
MACOMB*        CLOUDY    30  25  81 CALM      30.08S
JACKSONVILLE*  CLOUDY    28  23  82 SE5       30.07F WCI  22
PITTSFIELD*    PTCLDY    28  23  83 S3        30.07F
$$

ILZ028>032-037-038-041>044-048-051>054-059>061-110900-
CENTRAL ILLINOIS

CITY           SKY/WX    TMP DP  RH WIND       PRES   REMARKS
PONTIAC        CLOUDY    16  15  95 CALM      30.07F
BLOOMINGTON    CLOUDY    21  19  92 SW3       30.07R
DECATUR        CLOUDY    23  20  88 S5        30.09S WCI  17
PEORIA         CLOUDY    26  22  84 S3        30.07F
LACON*         CLOUDY    23  21  94 CALM      30.04F
LINCOLN*       CLOUDY    25  22  89 CALM      30.09S
SPRINGFIELD    CLEAR     27  22  81 S3        30.09F
TAYLORVILLE    CLEAR     23  20  89 S3        30.09F
$$

ILZ033-039-045-046-055>057-062-063-110900-
EAST-CENTRAL ILLINOIS

CITY           SKY/WX    TMP DP  RH WIND       PRES   REMARKS
CHAMPAIGN      CLOUDY    19  16  88 CALM      30.09S
DANVILLE*      CLOUDY    21  19  89 S3        30.06S
RANTOUL*       CLOUDY    22  20  90 CALM      30.07F
MATTOON        CLEAR     25  23  92 S5        30.08F WCI  19
PARIS*         CLOUDY    19  17  93 CALM      30.09F
$$

ILZ079-100>102-110900-
SOUTHWEST ILLINOIS

CITY           SKY/WX    TMP DP  RH WIND       PRES   REMARKS
ALTON          CLEAR     24  22  93 S3        30.10F
BELLEVILLE     CLEAR     26  22  82 CALM      30.10F
CAHOKIA*       CLEAR     27  22  81 S3        30.11F
$$

ILZ064>066-069>071-074>076-080>082-084>086-088>090-092>094-110900-
SOUTH-CENTRAL ILLINOIS

CITY           SKY/WX    TMP DP  RH WIND       PRES   REMARKS
CARBONDALE     CLEAR     26  24  92 CALM      30.13S
CAIRO*         CLEAR     27  26  97 CALM      30.14F
EFFINGHAM*     CLEAR     24  23  96 CALM      30.13F
MARION         CLEAR     30  29  97 CALM      30.13F
MT. VERNON     CLEAR     22  21  96 CALM      30.13S
CENTRALIA*     CLEAR     26  24  92 S3        30.11F
SALEM*         CLEAR     28  24  84 CALM      30.11F
METROPOLIS*    CLEAR     27  26  94 CALM      30.15S
$$

ILZ067-068-072-073-078-083-087-091-110900-
SOUTHEAST ILLINOIS

CITY           SKY/WX    TMP DP  RH WIND       PRES   REMARKS
LAWRENCEVILLE  CLEAR     26  21  81 CALM      30.12F
FLORA*         CLEAR     27  23  86 CALM      30.12F
FAIRFIELD*     CLEAR     25  23  92 CALM      30.12S
HARRISBURG*    CLEAR     26  24  93 CALM      30.14F
ROBINSON*      CLEAR     21  19  93 CALM      30.13S
CARMI*         CLEAR     26  24  94 CALM      30.13S
$$

ABBREVIATIONS USED IN REMARKS
   TC - TEMPERATURE IN CELSIUS
  WCI - WIND CHILL INDEX
   HX - HEAT INDEX
  VSB - VISIBILITY
$$





USA.gov is the U.S. government's official web portal to all federal, state and local government web resources and services.